This is the latest recevied weather packets stored in our database for station/object KSUZ. If no packets are shown the sender has not sent any weather packets the latest 10 day(s).
| Time | Temp. | Humidity | Pressure | Rain* | Wind** | Luminosity | Snow |
|---|---|---|---|---|---|---|---|
| 1777608226 | 12.78° C | 87% | 1016.6 hPa | - | - | - | - |
| 1777607621 | 12.78° C | 87% | 1016.9 hPa | - | - | - | - |
| 1777607017 | 12.78° C | 87% | 1016.9 hPa | - | - | - | - |
| 1777606418 | 11.67° C | 93% | 1016.9 hPa | - | - | - | - |
| 1777605821 | 11.67° C | 93% | 1016.9 hPa | - | - | - | - |
| 1777605217 | 11.67° C | 93% | 1016.6 hPa | - | - | - | - |
| 1777604020 | 12.78° C | 87% | 1016.6 hPa | - | - | - | - |
| 1777603419 | 12.78° C | 87% | 1016.6 hPa | - | - | - | - |
| 1777602824 | 13.89° C | 82% | 1015.9 hPa | - | - | - | - |
| 1777602220 | 13.89° C | 82% | 1015.9 hPa | - | - | - | - |
| 1777601621 | 13.89° C | 71% | 1015.9 hPa | - | - | - | - |
| 1777601019 | 13.89° C | 71% | 1015.9 hPa | - | - | - | - |
| 1777600419 | 13.89° C | 76% | 1015.6 hPa | - | - | - | - |
| 1777599823 | 13.89° C | 76% | 1015.6 hPa | - | - | - | - |
| 1777599221 | 13.89° C | 76% | 1015.6 hPa | - | - | - | - |
| 1777598621 | 13.89° C | 76% | 1015.6 hPa | - | - | - | - |
| 1777598021 | 13.89° C | 71% | 1015.2 hPa | - | - | - | - |
| 1777597422 | 13.89° C | 71% | 1015.2 hPa | - | - | - | - |
| 1777596825 | 15° C | 67% | 1014.9 hPa | - | - | - | - |
| 1777596221 | 15° C | 67% | 1014.9 hPa | - | - | - | - |
| 1777595623 | 15.56° C | 63% | 1015.2 hPa | - | - | - | - |
| 1777595022 | 15.56° C | 63% | 1015.2 hPa | - | - | - | - |
| 1777594420 | 15.56° C | 63% | 1014.9 hPa | - | - | - | - |
| 1777593823 | 15.56° C | 63% | 1014.9 hPa | - | - | - | - |
| 1777593222 | 16.67° C | 55% | 1014.9 hPa | - | - | - | - |
* Rain since midnight (hover to see other rain measurements)
** Current wind speed in m/s (hover to see current wind gust speed)